FLOCK 3P-73

Last updated on Wed Feb 14 2018 16:20:24 GMT+0000 (Coordinated Universal Time)

1 41981U 17008AK 18044.92020628 .00002171 00000-0 92759-4 0 9992 2 41981 97.4684 110.5514 0010093 73.6733 286.5613 15.23914357 55306
UTC large
Height (km)
Speed (km/s)
/
Latitude / Longitude
Inclination (degrees)
Orbital Period (minutes)
Azimuth
Elevation
Range (km)
Doppler Factor

Next 0 passes for location: London (51.5072 / 0.1276)

Sorry there are no passes over London.
FLOCK 3P-73